Flag Weather past 2 weeks in Budapest, Hungary

Now
32 °F

Passing clouds.


Feels Like: 22 °F
Forecast: 32 / 35 °F
Wind: 14 mph from East

Location: Ferenc Liszt International Airport

Current Time: Nov 27, 2014 at 9:12:33 PM

Latest Report: Nov 27, 2014 at 8:30 PM


Visibility: 4 mi

Pressure: 30.12 "Hg

Humidity: 93%

Dew point: 30 °F

Location of BudapestLocation

Historic Weather in Budapest — Graph

°F

Budapest temperature yesterday

Maximum temperature yesterday: 39 °F (at 10:00 AM)
Minimum temperature yesterday: 34 °F (at 5:00 PM)
Average temperature yesterday: 36 °F

Past Weeks' High & Low Weather Summary

 TemperatureHumidityPressure
High59 °F (Nov 14, 1:30 PM)100% (Nov 14, 4:30 AM)30.45 "Hg (Nov 14, 4:30 AM)
Low30 °F (Nov 21, 8:30 PM)53% (Nov 23, 3:30 PM)29.80 "Hg (Nov 16, 3:30 PM)
Average44 °F89%30.11 "Hg
* Reported Nov 12 8:00 PM — Nov 27 8:00 PM, Budapest, Weather by CustomWeather, © 2014

Note: Actual official high and low records may vary slightly from our data, if they occured in-between our weather recording intervals... More about our weather records

Advertising

Budapest weather history for previous 24 hours

 ConditionsComfort  
Time TempWeatherWind HumidityBarometerVisibility
8:00 PM
Nov 27
32 °FPassing clouds.12 mph93%30.12 "Hg4 mi
7:30 PM32 °FIce fog.12 mph93%30.12 "Hg3 mi
7:00 PM32 °FIce fog.13 mph93%30.12 "Hg3 mi
6:30 PM34 °FPassing clouds.12 mph87%30.12 "Hg5 mi
6:00 PM34 °FPassing clouds.12 mph87%30.12 "Hg5 mi
5:30 PM34 °FPartly cloudy.12 mph87%30.12 "Hg6 mi
5:00 PM34 °FPassing clouds.9 mph87%30.12 "Hg6 mi
4:30 PM34 °FPassing clouds.9 mph87%30.12 "Hg4 mi
4:00 PM34 °FPassing clouds.9 mph87%30.12 "Hg4 mi
3:30 PM34 °FClear.8 mph81%30.12 "Hg4 mi
3:00 PM34 °FBroken clouds.9 mph87%30.12 "Hg4 mi
2:30 PM34 °FPartly sunny.10 mph87%30.12 "Hg4 mi
2:00 PM34 °FBroken clouds.9 mph87%30.12 "Hg4 mi
1:30 PM32 °FIce fog.8 mph93%30.15 "Hg3 mi
1:00 PM32 °FIce fog.9 mph93%30.15 "Hg3 mi
12:30 PM32 °FIce fog.9 mph100%30.15 "Hg3 mi
12:00 PM32 °FIce fog.9 mph100%30.15 "Hg3 mi
11:30 AM32 °FIce fog.9 mph100%30.18 "Hg3 mi
11:00 AM32 °FIce fog.9 mph100%30.18 "Hg3 mi
10:30 AM32 °FIce fog.12 mph100%30.18 "Hg3 mi
10:00 AM32 °FIce fog.10 mph100%30.18 "Hg3 mi
9:30 AM32 °FIce fog.10 mph100%30.18 "Hg3 mi
9:00 AM32 °FIce fog.12 mph100%30.18 "Hg3 mi
8:30 AM32 °FIce fog.10 mph93%30.18 "Hg3 mi
8:00 AM32 °FIce fog.10 mph100%30.18 "Hg3 mi
7:30 AM32 °FIce fog.10 mph100%30.18 "Hg3 mi
7:00 AM32 °FIce fog.10 mph100%30.18 "Hg3 mi
6:30 AM32 °FLow clouds.9 mph93%30.18 "Hg4 mi
6:00 AM32 °FLow clouds.10 mph93%30.18 "Hg4 mi
5:30 AM32 °FLow clouds.9 mph93%30.18 "Hg4 mi
5:00 AM32 °FPartly cloudy.7 mph93%30.18 "Hg5 mi
4:30 AM32 °FMostly cloudy.9 mph93%30.18 "Hg4 mi
4:00 AM32 °FMostly cloudy.8 mph93%30.18 "Hg4 mi
3:30 AM34 °FMostly cloudy.8 mph87%30.18 "Hg4 mi
3:00 AM34 °FFog.7 mph93%30.18 "Hg3 mi
2:30 AM34 °FFog.9 mph93%30.21 "Hg3 mi
2:00 AM34 °FFog.7 mph93%30.21 "Hg3 mi
1:30 AM34 °FFog.7 mph93%30.21 "Hg3 mi
12:30 AM34 °FFog.6 mph93%30.21 "Hg3 mi
12:00 AM34 °FFog.8 mph93%30.21 "Hg3 mi
11:30 PM
Nov 26
34 °FLow clouds.7 mph100%30.21 "Hg4 mi
11:00 PM34 °FPartly cloudy.6 mph100%30.24 "Hg4 mi
10:30 PM34 °FPartly cloudy.5 mph93%30.24 "Hg4 mi
10:00 PM34 °FPartly cloudy.3 mph93%30.24 "Hg4 mi
9:30 PM34 °FPassing clouds.5 mph93%30.24 "Hg4 mi
9:00 PM34 °FPassing clouds.3 mph93%30.24 "Hg4 mi
Weather by CustomWeather, © 2014

See weather overviewHow to use our weather pages